sat.trackr.live / text

‹ back to catalog

STARLINK-4678

NORAD 53780 · 2022-111H

PAYLOAD ACTIVE UNKNOWN

§ Identity

Operator
Country
US
Launch date
2022-09-11
Launch site
AFETR
Launch vehicle
Mass (kg)
RCS (m²)

Purposes: comms

External: N2YO · Heavens-Above · Gunter

§ Orbital elements

Epoch: 2026-09-20T04:34:39.667296Z

Period
93.85 min
Inclination
53.1608°
Eccentricity
0.0001288
Mean motion
15.34391328 rev/d
Perigee alt
461.8 km
Apogee alt
463.6 km
Semi-major
6,840.9 km
B*
-8.3661e-6
RAAN
115.1007°
Arg perigee
85.2255°
Mean anomaly
274.8894°
Rev number
22,313

§ Raw data

STARLINK-46781 53780U 22111H   26263.19073689 -.00000659  00000+0 -83661-5 0  99922 53780  53.1608 115.1007 0001288  85.2255 274.8894 15.34391328223131

JSON: /api/v1/satellites/53780 · /tle

For live sub-satellite position, see the globe view (requires WebGL).

§ Visibility from observer

Set your observer location to see the next 7 days of passes ≥ 10°. The values pass through the URL so the page stays shareable.

No JS? Fill the form by hand. The geolocation button needs JavaScript.